Location: Cambridge (historical)
(38.6883°N, 119.0140°W)
Time: 16:49:35
(UTC+00:00)

Aureole 3 - Pass Details

Date: 29 October 2020
Orbit: 382 x 1232 km, 82.5° (Epoch: 22 November)

Event Time Altitude Azimuth Distance (km) Brightness Sun altitude
Rises 12:49:22 0° 354° (N) 2,835 6.9 -18.3°
Reaches altitude 10° 12:51:21 10° 356° (N) 2,038 6.1 -17.9°
Maximum altitude 12:55:54 79° 82° (E) 775 4.1 -17.0°
Drops below altitude 10° 13:01:44 10° 170° (S) 2,587 6.9 -15.9°
Sets 13:04:31 0° 172° (S) 3,663 7.7 -15.3°
